contact:dominique.lefevre@mio.osupytheas.fr, maurice.libes@osupytheas.fr, didier.mallarino@osupytheas.fr
Project:EMSO http://www.emso-fr.org/EMSO-France
Depth: 2436.0 m
Title:EMSO Ligure Ouest : Data MII capteur CSTAR
DateTime,Latitude,Longitude,Instrument_Serial,Reference_Counts,Signal_Counts,Corrected_Signal_raw_counts,Calculated_Beam_c_inverse_meters,Internal_thermistor_counts
DateTime,Latitude,Longitude,Instrument_Serial,Reference_Counts,Signal_Counts,Corrected_Signal_raw_counts,Calculated_Beam_c_inverse_meters,Internal_thermistor_counts
2021-12-04T00:02:07,42.805,6.029,CST-1368DR,5045,6528,13834,0.485,551
2021-12-04T00:05:08,42.805,6.029,CST-1368DR,5045,6528,13835,0.484,551
2021-12-04T00:08:10,42.805,6.029,CST-1368DR,5045,6528,13835,0.484,551
2021-12-04T00:11:11,42.805,6.029,CST-1368DR,5046,6529,13835,0.484,551
2021-12-04T00:14:13,42.805,6.029,CST-1368DR,5046,6528,13833,0.485,551
2021-12-04T00:17:14,42.805,6.029,CST-1368DR,5046,6529,13835,0.484,551
2021-12-04T00:20:16,42.805,6.029,CST-1368DR,5046,6528,13833,0.485,551
2021-12-04T00:23:18,42.805,6.029,CST-1368DR,5045,6528,13834,0.485,551
2021-12-04T00:26:19,42.805,6.029,CST-1368DR,5046,6527,13830,0.486,551
2021-12-04T00:29:21,42.805,6.029,CST-1368DR,5046,6529,13834,0.485,551
2021-12-04T00:32:22,42.805,6.029,CST-1368DR,5046,6528,13833,0.485,551
2021-12-04T00:35:24,42.805,6.029,CST-1368DR,5046,6527,13830,0.486,551
2021-12-04T00:38:26,42.805,6.029,CST-1368DR,5045,6528,13835,0.484,551
2021-12-04T00:41:27,42.805,6.029,CST-1368DR,5045,6528,13835,0.484,551
2021-12-04T00:44:29,42.805,6.029,CST-1368DR,5045,6528,13834,0.485,551
2021-12-04T00:47:30,42.805,6.029,CST-1368DR,5046,6528,13833,0.485,551
2021-12-04T00:50:32,42.805,6.029,CST-1368DR,5046,6526,13827,0.487,551
2021-12-04T00:53:33,42.805,6.029,CST-1368DR,5045,6526,13832,0.485,551
2021-12-04T00:56:35,42.805,6.029,CST-1368DR,5045,6526,13831,0.486,551
2021-12-04T00:59:37,42.805,6.029,CST-1368DR,5045,6526,13832,0.485,551
2021-12-04T01:02:38,42.805,6.029,CST-1368DR,5045,6528,13835,0.484,551
2021-12-04T01:05:40,42.805,6.029,CST-1368DR,5045,6524,13826,0.487,551
2021-12-04T01:08:41,42.805,6.029,CST-1368DR,5045,6526,13830,0.486,551
2021-12-04T01:11:43,42.805,6.029,CST-1368DR,5045,6526,13831,0.486,551
2021-12-04T01:14:45,42.805,6.029,CST-1368DR,5045,6527,13834,0.485,551
2021-12-04T01:17:46,42.805,6.029,CST-1368DR,5045,6526,13830,0.486,551
2021-12-04T01:20:48,42.805,6.029,CST-1368DR,5045,6526,13831,0.486,551
2021-12-04T01:23:49,42.805,6.029,CST-1368DR,5046,6530,13836,0.484,551
2021-12-04T01:26:51,42.805,6.029,CST-1368DR,5045,6528,13835,0.484,551
2021-12-04T01:29:52,42.805,6.029,CST-1368DR,5045,6528,13835,0.484,551
2021-12-04T01:32:54,42.805,6.029,CST-1368DR,5045,6527,13833,0.485,551
2021-12-04T01:35:56,42.805,6.029,CST-1368DR,5045,6526,13832,0.485,551
2021-12-04T01:38:57,42.805,6.029,CST-1368DR,5046,6525,13827,0.487,551
2021-12-04T01:41:59,42.805,6.029,CST-1368DR,5045,6526,13831,0.486,551
2021-12-04T01:45:00,42.805,6.029,CST-1368DR,5045,6527,13833,0.485,551
2021-12-04T01:48:02,42.805,6.029,CST-1368DR,5045,6528,13836,0.484,551
2021-12-04T01:51:04,42.805,6.029,CST-1368DR,5045,6527,13833,0.485,551
2021-12-04T01:54:05,42.805,6.029,CST-1368DR,5045,6526,13831,0.486,551
2021-12-04T01:57:07,42.805,6.029,CST-1368DR,5045,6527,13834,0.485,551
2021-12-04T02:00:08,42.805,6.029,CST-1368DR,5045,6527,13833,0.485,551
2021-12-04T02:03:10,42.805,6.029,CST-1368DR,5045,6528,13835,0.484,551
2021-12-04T02:06:11,42.805,6.029,CST-1368DR,5045,6528,13834,0.485,551
2021-12-04T02:09:13,42.805,6.029,CST-1368DR,5045,6528,13835,0.484,551
2021-12-04T02:12:15,42.805,6.029,CST-1368DR,5045,6526,13832,0.485,551
2021-12-04T02:15:16,42.805,6.029,CST-1368DR,5045,6529,13837,0.484,551
2021-12-04T02:18:18,42.805,6.029,CST-1368DR,5045,6527,13833,0.485,551
2021-12-04T02:21:19,42.805,6.029,CST-1368DR,5045,6528,13835,0.484,551
2021-12-04T02:24:21,42.805,6.029,CST-1368DR,5045,6524,13827,0.487,551
2021-12-04T02:27:22,42.805,6.029,CST-1368DR,5045,6524,13826,0.487,551
2021-12-04T02:30:24,42.805,6.029,CST-1368DR,5045,6526,13831,0.486,551
2021-12-04T02:33:26,42.805,6.029,CST-1368DR,5045,6525,13829,0.486,551
2021-12-04T02:36:27,42.805,6.029,CST-1368DR,5045,6528,13834,0.485,551
2021-12-04T02:39:29,42.805,6.029,CST-1368DR,5045,6527,13833,0.485,551
2021-12-04T02:42:30,42.805,6.029,CST-1368DR,5045,6526,13831,0.486,551
2021-12-04T02:45:32,42.805,6.029,CST-1368DR,5045,6525,13828,0.486,551
2021-12-04T02:48:34,42.805,6.029,CST-1368DR,5045,6527,13833,0.485,551
2021-12-04T02:51:35,42.805,6.029,CST-1368DR,5045,6526,13832,0.485,551
2021-12-04T02:54:37,42.805,6.029,CST-1368DR,5045,6526,13831,0.486,551
2021-12-04T02:57:38,42.805,6.029,CST-1368DR,5045,6526,13832,0.485,551
2021-12-04T03:00:40,42.805,6.029,CST-1368DR,5045,6526,13832,0.485,551
2021-12-04T03:03:41,42.805,6.029,CST-1368DR,5045,6526,13830,0.486,551
2021-12-04T03:06:43,42.805,6.029,CST-1368DR,5045,6527,13833,0.485,551
2021-12-04T03:09:45,42.805,6.029,CST-1368DR,5045,6525,13830,0.486,551
2021-12-04T03:12:46,42.805,6.029,CST-1368DR,5045,6526,13832,0.485,551
2021-12-04T03:15:48,42.805,6.029,CST-1368DR,5045,6527,13833,0.485,551
2021-12-04T03:18:49,42.805,6.029,CST-1368DR,5045,6526,13831,0.486,551
2021-12-04T03:21:51,42.805,6.029,CST-1368DR,5045,6525,13830,0.486,551
2021-12-04T03:24:52,42.805,6.029,CST-1368DR,5045,6528,13836,0.484,551
2021-12-04T03:27:54,42.805,6.029,CST-1368DR,5045,6526,13832,0.485,551
2021-12-04T03:30:56,42.805,6.029,CST-1368DR,5045,6527,13833,0.485,551
2021-12-04T03:33:57,42.805,6.029,CST-1368DR,5045,6525,13829,0.486,551
2021-12-04T03:36:59,42.805,6.029,CST-1368DR,5045,6525,13830,0.486,551
2021-12-04T03:40:00,42.805,6.029,CST-1368DR,5045,6527,13833,0.485,551
2021-12-04T03:43:02,42.805,6.029,CST-1368DR,5045,6530,13839,0.483,551
2021-12-04T03:46:04,42.805,6.029,CST-1368DR,5045,6527,13834,0.485,551
2021-12-04T03:49:05,42.805,6.029,CST-1368DR,5045,6525,13828,0.486,551
2021-12-04T03:52:07,42.805,6.029,CST-1368DR,5045,6527,13833,0.485,551
2021-12-04T03:55:08,42.805,6.029,CST-1368DR,5045,6528,13835,0.484,551
2021-12-04T03:58:10,42.805,6.029,CST-1368DR,5045,6525,13830,0.486,551
2021-12-04T04:01:11,42.805,6.029,CST-1368DR,5045,6526,13831,0.486,551
2021-12-04T04:04:13,42.805,6.029,CST-1368DR,5045,6525,13829,0.486,551
2021-12-04T04:07:15,42.805,6.029,CST-1368DR,5045,6526,13831,0.486,551
2021-12-04T04:10:16,42.805,6.029,CST-1368DR,5045,6528,13835,0.484,551
2021-12-04T04:13:18,42.805,6.029,CST-1368DR,5045,6526,13830,0.486,551
2021-12-04T04:16:19,42.805,6.029,CST-1368DR,5045,6525,13828,0.486,550
2021-12-04T04:19:21,42.805,6.029,CST-1368DR,5045,6524,13826,0.487,551
2021-12-04T04:22:23,42.805,6.029,CST-1368DR,5045,6527,13834,0.485,551
2021-12-04T04:25:24,42.805,6.029,CST-1368DR,5045,6527,13833,0.485,551
2021-12-04T04:28:26,42.805,6.029,CST-1368DR,5045,6528,13834,0.485,551
2021-12-04T04:31:27,42.805,6.029,CST-1368DR,5045,6532,13843,0.482,551
2021-12-04T04:34:29,42.805,6.029,CST-1368DR,5045,6523,13825,0.487,551
2021-12-04T04:37:30,42.805,6.029,CST-1368DR,5045,6524,13827,0.487,551
2021-12-04T04:40:32,42.805,6.029,CST-1368DR,5045,6525,13829,0.486,551
2021-12-04T04:43:34,42.805,6.029,CST-1368DR,5045,6527,13833,0.485,551
2021-12-04T04:46:35,42.805,6.029,CST-1368DR,5045,6527,13834,0.485,551
2021-12-04T04:49:37,42.805,6.029,CST-1368DR,5045,6524,13827,0.487,551
2021-12-04T04:52:38,42.805,6.029,CST-1368DR,5045,6528,13835,0.484,551
2021-12-04T04:55:40,42.805,6.029,CST-1368DR,5045,6526,13831,0.486,551
2021-12-04T04:58:41,42.805,6.029,CST-1368DR,5045,6527,13833,0.485,551
2021-12-04T05:01:43,42.805,6.029,CST-1368DR,5045,6527,13833,0.485,551
2021-12-04T05:04:45,42.805,6.029,CST-1368DR,5045,6525,13828,0.486,551
2021-12-04T05:07:46,42.805,6.029,CST-1368DR,5045,6525,13830,0.486,551
2021-12-04T05:10:48,42.805,6.029,CST-1368DR,5045,6527,13833,0.485,551
2021-12-04T05:13:49,42.805,6.029,CST-1368DR,5045,6526,13832,0.485,551
2021-12-04T05:16:51,42.805,6.029,CST-1368DR,5045,6524,13827,0.487,551
2021-12-04T05:19:53,42.805,6.029,CST-1368DR,5045,6525,13829,0.486,551
2021-12-04T05:22:54,42.805,6.029,CST-1368DR,5045,6526,13832,0.485,551
2021-12-04T05:25:56,42.805,6.029,CST-1368DR,5045,6526,13831,0.486,551
2021-12-04T05:28:57,42.805,6.029,CST-1368DR,5045,6525,13830,0.486,551
2021-12-04T05:31:59,42.805,6.029,CST-1368DR,5045,6527,13833,0.485,551
2021-12-04T05:35:00,42.805,6.029,CST-1368DR,5045,6526,13831,0.486,551
2021-12-04T05:38:02,42.805,6.029,CST-1368DR,5045,6527,13833,0.485,551
2021-12-04T05:41:04,42.805,6.029,CST-1368DR,5045,6525,13828,0.486,551
2021-12-04T05:44:05,42.805,6.029,CST-1368DR,5045,6527,13834,0.485,551
2021-12-04T05:47:07,42.805,6.029,CST-1368DR,5045,6525,13829,0.486,551
2021-12-04T05:50:08,42.805,6.029,CST-1368DR,5045,6525,13829,0.486,551
2021-12-04T05:53:10,42.805,6.029,CST-1368DR,5045,6524,13827,0.487,551
2021-12-04T05:56:12,42.805,6.029,CST-1368DR,5045,6527,13833,0.485,551
2021-12-04T05:59:13,42.805,6.029,CST-1368DR,5045,6525,13829,0.486,551
2021-12-04T06:02:15,42.805,6.029,CST-1368DR,5045,6524,13827,0.487,551
2021-12-04T06:05:16,42.805,6.029,CST-1368DR,5045,6525,13828,0.486,551
2021-12-04T06:08:18,42.805,6.029,CST-1368DR,5045,6523,13824,0.488,551
2021-12-04T06:11:19,42.805,6.029,CST-1368DR,5045,6525,13828,0.486,551
2021-12-04T06:14:21,42.805,6.029,CST-1368DR,5045,6523,13824,0.488,551
2021-12-04T06:17:23,42.805,6.029,CST-1368DR,5045,6526,13831,0.486,551
2021-12-04T06:20:24,42.805,6.029,CST-1368DR,5045,6523,13825,0.487,551
2021-12-04T06:23:26,42.805,6.029,CST-1368DR,5045,6525,13829,0.486,551
2021-12-04T06:26:27,42.805,6.029,CST-1368DR,5045,6525,13830,0.486,551
2021-12-04T06:29:29,42.805,6.029,CST-1368DR,5045,6524,13827,0.487,551
2021-12-04T06:32:31,42.805,6.029,CST-1368DR,5045,6524,13827,0.487,551
2021-12-04T06:35:32,42.805,6.029,CST-1368DR,5045,6526,13832,0.485,551
2021-12-04T06:38:34,42.805,6.029,CST-1368DR,5045,6526,13831,0.486,551
2021-12-04T06:41:35,42.805,6.029,CST-1368DR,5045,6524,13827,0.487,551
2021-12-04T06:44:37,42.805,6.029,CST-1368DR,5045,6523,13825,0.487,551
2021-12-04T06:47:38,42.805,6.029,CST-1368DR,5045,6526,13830,0.486,551
2021-12-04T06:50:40,42.805,6.029,CST-1368DR,5045,6525,13829,0.486,551
2021-12-04T06:53:42,42.805,6.029,CST-1368DR,5045,6523,13825,0.487,551
2021-12-04T06:56:43,42.805,6.029,CST-1368DR,5045,6525,13829,0.486,551
2021-12-04T06:59:45,42.805,6.029,CST-1368DR,5045,6525,13828,0.486,551
2021-12-04T07:02:46,42.805,6.029,CST-1368DR,5045,6525,13830,0.486,551
2021-12-04T07:05:48,42.805,6.029,CST-1368DR,5045,6526,13830,0.486,551
2021-12-04T07:08:49,42.805,6.029,CST-1368DR,5045,6524,13826,0.487,551
2021-12-04T07:11:51,42.805,6.029,CST-1368DR,5045,6524,13826,0.487,551
2021-12-04T07:14:53,42.805,6.029,CST-1368DR,5045,6524,13827,0.487,551
2021-12-04T07:17:54,42.805,6.029,CST-1368DR,5045,6524,13827,0.487,551
2021-12-04T07:20:56,42.805,6.029,CST-1368DR,5045,6524,13827,0.487,551
2021-12-04T07:23:57,42.805,6.029,CST-1368DR,5045,6525,13828,0.486,551
2021-12-04T07:26:59,42.805,6.029,CST-1368DR,5045,6526,13831,0.486,551
2021-12-04T07:30:01,42.805,6.029,CST-1368DR,5045,6525,13830,0.486,551
2021-12-04T07:33:02,42.805,6.029,CST-1368DR,5045,6525,13829,0.486,551
2021-12-04T07:36:04,42.805,6.029,CST-1368DR,5045,6524,13826,0.487,551
2021-12-04T07:39:05,42.805,6.029,CST-1368DR,5045,6523,13825,0.487,551
2021-12-04T07:42:07,42.805,6.029,CST-1368DR,5045,6524,13826,0.487,551
2021-12-04T07:45:08,42.805,6.029,CST-1368DR,5045,6526,13830,0.486,551
2021-12-04T07:48:10,42.805,6.029,CST-1368DR,5045,6526,13832,0.485,551
2021-12-04T07:51:12,42.805,6.029,CST-1368DR,5045,6525,13828,0.486,551
2021-12-04T07:54:13,42.805,6.029,CST-1368DR,5045,6525,13828,0.486,551
2021-12-04T07:57:15,42.805,6.029,CST-1368DR,5045,6523,13825,0.487,551
2021-12-04T08:00:16,42.805,6.029,CST-1368DR,5045,6526,13830,0.486,551
2021-12-04T08:03:18,42.805,6.029,CST-1368DR,5045,6526,13830,0.486,551
2021-12-04T08:06:20,42.805,6.029,CST-1368DR,5045,6523,13824,0.488,551
2021-12-04T08:09:21,42.805,6.029,CST-1368DR,5045,6524,13827,0.487,551
2021-12-04T08:12:23,42.805,6.029,CST-1368DR,5045,6524,13827,0.487,551
2021-12-04T08:15:24,42.805,6.029,CST-1368DR,5045,6526,13832,0.485,551
2021-12-04T08:18:26,42.805,6.029,CST-1368DR,5045,6524,13826,0.487,551
2021-12-04T08:21:27,42.805,6.029,CST-1368DR,5045,6525,13828,0.486,551
2021-12-04T08:24:29,42.805,6.029,CST-1368DR,5045,6525,13829,0.486,551
2021-12-04T08:27:31,42.805,6.029,CST-1368DR,5045,6525,13830,0.486,551
2021-12-04T08:30:32,42.805,6.029,CST-1368DR,5045,6525,13828,0.486,551
2021-12-04T08:33:34,42.805,6.029,CST-1368DR,5045,6524,13827,0.487,551
2021-12-04T08:36:35,42.805,6.029,CST-1368DR,5045,6524,13827,0.487,551
2021-12-04T08:39:37,42.805,6.029,CST-1368DR,5045,6525,13829,0.486,551
2021-12-04T08:42:39,42.805,6.029,CST-1368DR,5045,6524,13827,0.487,551
2021-12-04T08:45:40,42.805,6.029,CST-1368DR,5045,6522,13822,0.488,551
2021-12-04T08:48:42,42.805,6.029,CST-1368DR,5045,6525,13830,0.486,551
2021-12-04T08:51:43,42.805,6.029,CST-1368DR,5045,6524,13826,0.487,551
2021-12-04T08:54:45,42.805,6.029,CST-1368DR,5045,6525,13829,0.486,551
2021-12-04T08:57:46,42.805,6.029,CST-1368DR,5045,6524,13827,0.487,551
2021-12-04T09:00:48,42.805,6.029,CST-1368DR,5045,6524,13827,0.487,551
2021-12-04T09:03:50,42.805,6.029,CST-1368DR,5045,6524,13826,0.487,551
2021-12-04T09:06:51,42.805,6.029,CST-1368DR,5045,6524,13827,0.487,551
2021-12-04T09:09:53,42.805,6.029,CST-1368DR,5045,6526,13831,0.486,551
2021-12-04T09:12:54,42.805,6.029,CST-1368DR,5045,6525,13828,0.486,551
2021-12-04T09:15:56,42.805,6.029,CST-1368DR,5045,6525,13828,0.486,551
2021-12-04T09:18:57,42.805,6.029,CST-1368DR,5045,6523,13824,0.488,551
2021-12-04T09:21:59,42.805,6.029,CST-1368DR,5045,6524,13826,0.487,551
2021-12-04T09:25:01,42.805,6.029,CST-1368DR,5045,6525,13830,0.486,551
2021-12-04T09:28:02,42.805,6.029,CST-1368DR,5045,6522,13822,0.488,551
2021-12-04T09:31:04,42.805,6.029,CST-1368DR,5045,6524,13826,0.487,551
2021-12-04T09:34:05,42.805,6.029,CST-1368DR,5045,6523,13824,0.488,551
2021-12-04T09:37:07,42.805,6.029,CST-1368DR,5045,6524,13827,0.487,551
2021-12-04T09:40:09,42.805,6.029,CST-1368DR,5045,6524,13826,0.487,551
2021-12-04T09:43:10,42.805,6.029,CST-1368DR,5045,6525,13828,0.486,551
2021-12-04T09:46:12,42.805,6.029,CST-1368DR,5044,6525,13831,0.486,551
2021-12-04T09:49:13,42.805,6.029,CST-1368DR,5045,6526,13832,0.485,551
2021-12-04T09:52:15,42.805,6.029,CST-1368DR,5045,6523,13825,0.487,551
2021-12-04T09:55:16,42.805,6.029,CST-1368DR,5045,6523,13824,0.488,551
2021-12-04T09:58:18,42.805,6.029,CST-1368DR,5045,6524,13827,0.487,551
2021-12-04T10:01:20,42.805,6.029,CST-1368DR,5045,6524,13827,0.487,551
2021-12-04T10:04:21,42.805,6.029,CST-1368DR,5045,6523,13824,0.488,551
2021-12-04T10:07:23,42.805,6.029,CST-1368DR,5045,6525,13828,0.486,551
2021-12-04T10:10:24,42.805,6.029,CST-1368DR,5045,6523,13824,0.488,551
2021-12-04T10:13:26,42.805,6.029,CST-1368DR,5045,6525,13828,0.486,551
2021-12-04T10:16:28,42.805,6.029,CST-1368DR,5044,6525,13831,0.486,551
2021-12-04T10:19:29,42.805,6.029,CST-1368DR,5045,6525,13829,0.486,551
2021-12-04T10:22:31,42.805,6.029,CST-1368DR,5045,6524,13827,0.487,551
2021-12-04T10:25:32,42.805,6.029,CST-1368DR,5045,6524,13827,0.487,551
2021-12-04T10:28:34,42.805,6.029,CST-1368DR,5045,6524,13827,0.487,551
2021-12-04T10:31:35,42.805,6.029,CST-1368DR,5045,6524,13827,0.487,551
2021-12-04T10:34:37,42.805,6.029,CST-1368DR,5044,6525,13831,0.486,550
2021-12-04T10:37:39,42.805,6.029,CST-1368DR,5044,6524,13829,0.486,551
2021-12-04T10:40:40,42.805,6.029,CST-1368DR,5044,6523,13827,0.487,551
2021-12-04T10:43:42,42.805,6.029,CST-1368DR,5044,6524,13829,0.486,551
2021-12-04T10:46:43,42.805,6.029,CST-1368DR,5044,6526,13833,0.485,551
2021-12-04T10:49:45,42.805,6.029,CST-1368DR,5044,6524,13829,0.486,551
2021-12-04T10:52:47,42.805,6.029,CST-1368DR,5044,6524,13828,0.486,551
2021-12-04T10:55:48,42.805,6.029,CST-1368DR,5044,6525,13831,0.486,551
2021-12-04T10:58:50,42.805,6.029,CST-1368DR,5044,6522,13826,0.487,551
2021-12-04T11:01:51,42.805,6.029,CST-1368DR,5044,6524,13829,0.486,551
2021-12-04T11:04:53,42.805,6.029,CST-1368DR,5044,6523,13826,0.487,551
2021-12-04T11:07:54,42.805,6.029,CST-1368DR,5044,6523,13827,0.487,551
2021-12-04T11:10:56,42.805,6.029,CST-1368DR,5044,6521,13823,0.488,551
2021-12-04T11:13:58,42.805,6.029,CST-1368DR,5044,6523,13826,0.487,551
2021-12-04T11:16:59,42.805,6.029,CST-1368DR,5044,6525,13831,0.486,551
2021-12-04T11:20:01,42.805,6.029,CST-1368DR,5044,6524,13830,0.486,551
2021-12-04T11:23:02,42.805,6.029,CST-1368DR,5044,6524,13830,0.486,551
2021-12-04T11:26:04,42.805,6.029,CST-1368DR,5044,6523,13826,0.487,551
2021-12-04T11:29:05,42.805,6.029,CST-1368DR,5044,6524,13830,0.486,551
2021-12-04T11:32:07,42.805,6.029,CST-1368DR,5044,6522,13826,0.487,551
2021-12-04T11:35:09,42.805,6.029,CST-1368DR,5044,6524,13829,0.486,551
2021-12-04T11:38:10,42.805,6.029,CST-1368DR,5045,6523,13825,0.487,551
2021-12-04T11:41:12,42.805,6.029,CST-1368DR,5044,6523,13827,0.487,551
2021-12-04T11:44:13,42.805,6.029,CST-1368DR,5044,6523,13827,0.487,551
2021-12-04T11:47:15,42.805,6.029,CST-1368DR,5044,6523,13826,0.487,551
2021-12-04T11:50:17,42.805,6.029,CST-1368DR,5044,6521,13823,0.488,551
2021-12-04T11:53:18,42.805,6.029,CST-1368DR,5044,6523,13827,0.487,551
2021-12-04T11:56:20,42.805,6.029,CST-1368DR,5044,6524,13829,0.486,551
2021-12-04T11:59:21,42.805,6.029,CST-1368DR,5044,6522,13825,0.487,551
2021-12-04T12:02:23,42.805,6.029,CST-1368DR,5044,6524,13828,0.486,551
2021-12-04T12:05:24,42.805,6.029,CST-1368DR,5044,6524,13828,0.486,551
2021-12-04T12:08:26,42.805,6.029,CST-1368DR,5044,6522,13825,0.487,551
2021-12-04T12:11:28,42.805,6.029,CST-1368DR,5044,6522,13825,0.487,551
2021-12-04T12:14:29,42.805,6.029,CST-1368DR,5044,6524,13828,0.486,551
2021-12-04T12:17:31,42.805,6.029,CST-1368DR,5044,6523,13827,0.487,551
2021-12-04T12:20:32,42.805,6.029,CST-1368DR,5044,6524,13828,0.486,551
2021-12-04T12:23:34,42.805,6.029,CST-1368DR,5044,6524,13830,0.486,551
2021-12-04T12:26:36,42.805,6.029,CST-1368DR,5044,6524,13830,0.486,551
2021-12-04T12:29:37,42.805,6.029,CST-1368DR,5044,6521,13823,0.488,551
2021-12-04T12:32:39,42.805,6.029,CST-1368DR,5044,6522,13824,0.488,551
2021-12-04T12:35:40,42.805,6.029,CST-1368DR,5044,6521,13823,0.488,551
2021-12-04T12:38:42,42.805,6.029,CST-1368DR,5044,6523,13827,0.487,551
2021-12-04T12:41:43,42.805,6.029,CST-1368DR,5044,6524,13829,0.486,551
2021-12-04T12:44:45,42.805,6.029,CST-1368DR,5044,6521,13824,0.488,551
2021-12-04T12:47:47,42.805,6.029,CST-1368DR,5044,6522,13825,0.487,551
2021-12-04T12:50:48,42.805,6.029,CST-1368DR,5044,6524,13829,0.486,551
2021-12-04T12:53:50,42.805,6.029,CST-1368DR,5044,6524,13829,0.486,551
2021-12-04T12:56:51,42.805,6.029,CST-1368DR,5044,6523,13827,0.487,551
2021-12-04T12:59:53,42.805,6.029,CST-1368DR,5044,6522,13824,0.488,551
2021-12-04T13:02:54,42.805,6.029,CST-1368DR,5044,6523,13826,0.487,551
2021-12-04T13:05:56,42.805,6.029,CST-1368DR,5044,6523,13826,0.487,551
2021-12-04T13:08:58,42.805,6.029,CST-1368DR,5044,6525,13831,0.486,551
2021-12-04T13:11:59,42.805,6.029,CST-1368DR,5044,6522,13825,0.487,551
2021-12-04T13:15:01,42.805,6.029,CST-1368DR,5044,6524,13829,0.486,551
2021-12-04T13:18:02,42.805,6.029,CST-1368DR,5044,6522,13826,0.487,551
2021-12-04T13:21:04,42.805,6.029,CST-1368DR,5044,6519,13819,0.489,551
2021-12-04T13:24:06,42.805,6.029,CST-1368DR,5044,6524,13830,0.486,551
2021-12-04T13:27:07,42.805,6.029,CST-1368DR,5044,6522,13824,0.488,551
2021-12-04T13:30:09,42.805,6.029,CST-1368DR,5044,6521,13822,0.488,551
2021-12-04T13:33:10,42.805,6.029,CST-1368DR,5044,6524,13829,0.486,551
2021-12-04T13:36:12,42.805,6.029,CST-1368DR,5044,6522,13825,0.487,551
2021-12-04T13:39:13,42.805,6.029,CST-1368DR,5044,6522,13825,0.487,551
2021-12-04T13:42:15,42.805,6.029,CST-1368DR,5044,6522,13825,0.487,551
2021-12-04T13:45:17,42.805,6.029,CST-1368DR,5044,6522,13826,0.487,551
2021-12-04T13:48:18,42.805,6.029,CST-1368DR,5044,6521,13824,0.488,551
2021-12-04T13:51:20,42.805,6.029,CST-1368DR,5044,6521,13823,0.488,551
2021-12-04T13:54:21,42.805,6.029,CST-1368DR,5044,6522,13825,0.487,551
2021-12-04T13:57:23,42.805,6.029,CST-1368DR,5044,6524,13830,0.486,551
2021-12-04T14:00:25,42.805,6.029,CST-1368DR,5044,6523,13826,0.487,551
2021-12-04T14:03:26,42.805,6.029,CST-1368DR,5044,6523,13826,0.487,551
2021-12-04T14:06:28,42.805,6.029,CST-1368DR,5044,6521,13823,0.488,551
2021-12-04T14:09:29,42.805,6.029,CST-1368DR,5044,6521,13822,0.488,551
2021-12-04T14:12:31,42.805,6.029,CST-1368DR,5044,6521,13824,0.488,551
2021-12-04T14:15:32,42.805,6.029,CST-1368DR,5044,6523,13826,0.487,551
2021-12-04T14:18:34,42.805,6.029,CST-1368DR,5044,6522,13824,0.488,551
2021-12-04T14:21:36,42.805,6.029,CST-1368DR,5044,6522,13825,0.487,551
2021-12-04T14:24:37,42.805,6.029,CST-1368DR,5044,6523,13826,0.487,550
2021-12-04T14:27:39,42.805,6.029,CST-1368DR,5044,6524,13830,0.486,551
2021-12-04T14:30:40,42.805,6.029,CST-1368DR,5044,6524,13829,0.486,551
2021-12-04T14:33:42,42.805,6.029,CST-1368DR,5044,6523,13827,0.487,551
2021-12-04T14:36:44,42.805,6.029,CST-1368DR,5044,6522,13824,0.488,551
2021-12-04T14:39:45,42.805,6.029,CST-1368DR,5044,6522,13824,0.488,551
2021-12-04T14:42:47,42.805,6.029,CST-1368DR,5044,6523,13827,0.487,551
2021-12-04T14:45:48,42.805,6.029,CST-1368DR,5044,6524,13828,0.486,551
2021-12-04T14:48:50,42.805,6.029,CST-1368DR,5044,6522,13825,0.487,551
2021-12-04T14:51:51,42.805,6.029,CST-1368DR,5044,6524,13829,0.486,551
2021-12-04T14:54:53,42.805,6.029,CST-1368DR,5044,6522,13825,0.487,551
2021-12-04T14:57:55,42.805,6.029,CST-1368DR,5044,6521,13823,0.488,551
2021-12-04T15:00:56,42.805,6.029,CST-1368DR,5044,6521,13822,0.488,551
2021-12-04T15:03:58,42.805,6.029,CST-1368DR,5044,6519,13819,0.489,551
2021-12-04T15:06:59,42.805,6.029,CST-1368DR,5044,6520,13821,0.488,551
2021-12-04T15:10:01,42.805,6.029,CST-1368DR,5044,6520,13822,0.488,551
2021-12-04T15:13:02,42.805,6.029,CST-1368DR,5044,6521,13824,0.488,551
2021-12-04T15:16:04,42.805,6.029,CST-1368DR,5044,6522,13824,0.488,551
2021-12-04T15:19:06,42.805,6.029,CST-1368DR,5044,6522,13825,0.487,551
2021-12-04T15:22:07,42.805,6.029,CST-1368DR,5044,6523,13826,0.487,551
2021-12-04T15:25:09,42.805,6.029,CST-1368DR,5044,6521,13824,0.488,551
2021-12-04T15:28:10,42.805,6.029,CST-1368DR,5044,6521,13824,0.488,551
2021-12-04T15:31:12,42.805,6.029,CST-1368DR,5044,6522,13824,0.488,551
2021-12-04T15:34:14,42.805,6.029,CST-1368DR,5044,6521,13823,0.488,551
2021-12-04T15:37:15,42.805,6.029,CST-1368DR,5044,6521,13824,0.488,551
2021-12-04T15:40:17,42.805,6.029,CST-1368DR,5044,6522,13825,0.487,551
2021-12-04T15:43:18,42.805,6.029,CST-1368DR,5044,6520,13822,0.488,551
2021-12-04T15:46:20,42.805,6.029,CST-1368DR,5044,6522,13825,0.487,551
2021-12-04T15:49:21,42.805,6.029,CST-1368DR,5044,6520,13820,0.489,551
2021-12-04T15:52:23,42.805,6.029,CST-1368DR,5044,6521,13823,0.488,551
2021-12-04T15:55:25,42.805,6.029,CST-1368DR,5044,6521,13824,0.488,551
2021-12-04T15:58:26,42.805,6.029,CST-1368DR,5044,6519,13819,0.489,551
2021-12-04T16:01:28,42.805,6.029,CST-1368DR,5044,6520,13822,0.488,551
2021-12-04T16:04:29,42.805,6.029,CST-1368DR,5044,6520,13822,0.488,551
2021-12-04T16:07:31,42.805,6.029,CST-1368DR,5044,6520,13820,0.489,551
2021-12-04T16:10:32,42.805,6.029,CST-1368DR,5044,6520,13821,0.488,551
2021-12-04T16:13:34,42.805,6.029,CST-1368DR,5044,6522,13825,0.487,551
2021-12-04T16:16:36,42.805,6.029,CST-1368DR,5044,6522,13825,0.487,551
2021-12-04T16:19:37,42.805,6.029,CST-1368DR,5044,6522,13825,0.487,551
2021-12-04T16:22:39,42.805,6.029,CST-1368DR,5044,6521,13824,0.488,551
2021-12-04T16:25:40,42.805,6.029,CST-1368DR,5044,6521,13823,0.488,551
2021-12-04T16:28:42,42.805,6.029,CST-1368DR,5044,6521,13823,0.488,551
2021-12-04T16:31:44,42.805,6.029,CST-1368DR,5044,6519,13819,0.489,551
2021-12-04T16:34:45,42.805,6.029,CST-1368DR,5044,6521,13823,0.488,551
2021-12-04T16:37:47,42.805,6.029,CST-1368DR,5044,6520,13822,0.488,551
2021-12-04T16:40:48,42.805,6.029,CST-1368DR,5044,6522,13826,0.487,551
2021-12-04T16:43:50,42.805,6.029,CST-1368DR,5044,6526,13834,0.485,551
2021-12-04T16:46:51,42.805,6.029,CST-1368DR,5044,6521,13823,0.488,551
2021-12-04T16:49:53,42.805,6.029,CST-1368DR,5044,6521,13822,0.488,550
2021-12-04T16:52:55,42.805,6.029,CST-1368DR,5044,6521,13824,0.488,551